Time,TemperatureF,DewpointF,PressureIn,WindDirection,WindDirectionDegrees,WindSpeedMPH,WindSpeedGustMPH,Humidity,HourlyPrecipIn,Conditions,Clouds,dailyrainin,SoftwareType,DateUTC
2013-01-30 00:00:00,68.1,66.0,30.11,SSE,163,0.0,3.0,93,0.00,,CLR,0.00,VWS V14.01,2013-01-30 05:00:00,
2013-01-30 00:01:00,68.1,66.0,30.11,SSE,163,0.0,3.0,93,0.00,,CLR,0.00,VWS V14.01,2013-01-30 05:01:00,
2013-01-30 00:02:00,68.1,66.0,30.11,SSW,198,0.0,3.0,93,0.00,,CLR,0.00,VWS V14.01,2013-01-30 05:02:00,
2013-01-30 00:03:00,68.1,66.0,30.11,SSW,198,0.0,3.0,93,0.00,,CLR,0.00,VWS V14.01,2013-01-30 05:03:00,
2013-01-30 00:08:00,68.2,66.1,30.11,SSW,207,0.0,2.0,93,0.00,,CLR,0.00,VWS V14.01,2013-01-30 05:08:00,
2013-01-30 00:13:00,68.2,66.1,30.11,SSW,205,0.0,2.0,93,0.00,,CLR,0.00,VWS V14.01,2013-01-30 05:13:00,
2013-01-30 00:18:00,68.3,66.2,30.11,SSW,205,0.0,2.0,93,0.00,,CLR,0.00,VWS V14.01,2013-01-30 05:18:00,
2013-01-30 00:23:00,68.4,66.3,30.11,SSW,205,0.0,3.0,93,0.00,,CLR,0.00,VWS V14.01,2013-01-30 05:23:00,
2013-01-30 00:28:00,68.4,66.3,30.10,South,186,1.0,3.0,93,0.00,,CLR,0.00,VWS V14.01,2013-01-30 05:28:00,
2013-01-30 00:33:00,68.5,66.1,30.10,SSW,206,1.0,3.0,92,0.00,,CLR,0.00,VWS V14.01,2013-01-30 05:33:00,
2013-01-30 00:38:00,68.6,66.2,30.11,SSW,201,0.0,3.0,92,0.00,,CLR,0.00,VWS V14.01,2013-01-30 05:38:00,
2013-01-30 00:44:00,68.6,66.2,30.10,SSW,203,0.0,3.0,92,0.00,,CLR,0.00,VWS V14.01,2013-01-30 05:44:00,
2013-01-30 00:49:00,68.6,66.2,30.11,ESE,105,0.0,3.0,92,0.00,,CLR,0.00,VWS V14.01,2013-01-30 05:49:00,
2013-01-30 00:54:00,68.6,66.2,30.10,South,173,0.0,3.0,92,0.00,,CLR,0.00,VWS V14.01,2013-01-30 05:54:00,
2013-01-30 00:59:00,68.5,66.1,30.10,East,98,0.0,3.0,92,0.00,,CLR,0.00,VWS V14.01,2013-01-30 05:59:00,
2013-01-30 01:04:00,68.4,66.0,30.10,ESE,122,1.0,3.0,92,0.00,,CLR,0.00,VWS V14.01,2013-01-30 06:04:00,
2013-01-30 01:09:00,68.3,65.9,30.10,SSE,163,0.0,3.0,92,0.00,,CLR,0.00,VWS V14.01,2013-01-30 06:09:00,
2013-01-30 01:14:00,68.2,65.8,30.10,SSE,153,1.0,3.0,92,0.00,,CLR,0.00,VWS V14.01,2013-01-30 06:14:00,
2013-01-30 01:19:00,68.1,65.7,30.10,SSW,199,0.0,3.0,92,0.00,,CLR,0.00,VWS V14.01,2013-01-30 06:19:00,
2013-01-30 01:24:00,68.0,65.6,30.10,SSE,160,0.0,3.0,92,0.00,,CLR,0.00,VWS V14.01,2013-01-30 06:24:00,
2013-01-30 01:30:00,67.9,65.8,30.10,SSE,158,0.0,4.0,93,0.00,,CLR,0.00,VWS V14.01,2013-01-30 06:30:00,
2013-01-30 01:35:00,67.9,65.8,30.10,SSW,193,0.0,1.0,93,0.00,,CLR,0.00,VWS V14.01,2013-01-30 06:35:00,
2013-01-30 01:40:00,67.8,65.7,30.09,SSE,162,0.0,3.0,93,0.00,,CLR,0.00,VWS V14.01,2013-01-30 06:40:00,
2013-01-30 01:45:00,67.6,65.5,30.09,ESE,105,0.0,3.0,93,0.00,,CLR,0.00,VWS V14.01,2013-01-30 06:45:00,
2013-01-30 01:50:00,67.6,65.5,30.09,SSW,194,1.0,3.0,93,0.00,,OVC060,0.00,VWS V14.01,2013-01-30 06:50:00,
2013-01-30 01:55:00,67.5,65.4,30.09,SSW,198,0.0,3.0,93,0.00,,OVC060,0.00,VWS V14.01,2013-01-30 06:55:00,
2013-01-30 02:00:00,67.4,65.3,30.09,SE,128,0.0,3.0,93,0.00,,OVC060,0.00,VWS V14.01,2013-01-30 07:00:00,
2013-01-30 02:06:00,67.2,65.4,30.09,SSW,210,1.0,2.0,94,0.00,,OVC060,0.00,VWS V14.01,2013-01-30 07:06:00,
2013-01-30 02:11:00,67.1,65.3,30.09,SSW,201,0.0,2.0,94,0.00,,OVC060,0.00,VWS V14.01,2013-01-30 07:11:00,
2013-01-30 02:16:00,67.0,65.2,30.08,South,190,1.0,3.0,94,0.00,,OVC060,0.00,VWS V14.01,2013-01-30 07:16:00,
2013-01-30 02:21:00,66.9,65.1,30.08,SSW,208,1.0,6.0,94,0.00,,OVC060,0.00,VWS V14.01,2013-01-30 07:21:00,
2013-01-30 02:26:00,66.8,65.0,30.08,SSE,165,0.0,6.0,94,0.00,,OVC060,0.00,VWS V14.01,2013-01-30 07:26:00,
2013-01-30 02:32:00,66.7,64.9,30.08,SSE,165,0.0,6.0,94,0.00,,OVC060,0.00,VWS V14.01,2013-01-30 07:32:00,
2013-01-30 02:37:00,66.7,64.9,30.08,SSE,163,0.0,1.0,94,0.00,,OVC060,0.00,VWS V14.01,2013-01-30 07:37:00,
2013-01-30 02:42:00,66.5,65.0,30.08,SE,142,0.0,2.0,95,0.00,,OVC060,0.00,VWS V14.01,2013-01-30 07:42:00,
2013-01-30 02:47:00,66.2,64.4,30.08,SE,142,0.0,2.0,94,0.00,,FEW060,0.00,VWS V14.01,2013-01-30 07:47:00,
2013-01-30 02:52:00,66.1,64.6,30.08,SSW,195,2.0,2.0,95,0.00,,FEW060,0.00,VWS V14.01,2013-01-30 07:52:00,
2013-01-30 02:57:00,66.0,64.5,30.08,SSW,210,0.0,2.0,95,0.00,,FEW060,0.00,VWS V14.01,2013-01-30 07:57:00,
2013-01-30 03:02:00,65.8,64.3,30.08,South,190,0.0,2.0,95,0.00,,FEW060,0.00,VWS V14.01,2013-01-30 08:02:00,
2013-01-30 03:08:00,65.6,64.1,30.08,South,190,0.0,0.0,95,0.00,,FEW060,0.00,VWS V14.01,2013-01-30 08:08:00,
2013-01-30 03:13:00,65.5,64.3,30.08,SE,136,0.0,0.0,96,0.00,,FEW060,0.00,VWS V14.01,2013-01-30 08:13:00,
2013-01-30 03:18:00,65.3,64.1,30.08,SE,136,0.0,0.0,96,0.00,,FEW060,0.00,VWS V14.01,2013-01-30 08:18:00,
2013-01-30 03:23:00,65.2,64.0,30.08,SE,135,0.0,0.0,96,0.00,,FEW060,0.00,VWS V14.01,2013-01-30 08:23:00,
2013-01-30 03:28:00,65.1,63.9,30.08,SE,136,0.0,0.0,96,0.00,,FEW060,0.00,VWS V14.01,2013-01-30 08:28:00,
2013-01-30 03:33:00,64.9,63.7,30.07,SE,136,0.0,0.0,96,0.00,,FEW060,0.00,VWS V14.01,2013-01-30 08:33:00,
2013-01-30 03:38:00,64.8,63.6,30.07,SE,136,0.0,0.0,96,0.00,,FEW060,0.00,VWS V14.01,2013-01-30 08:38:00,
2013-01-30 03:44:00,64.8,63.6,30.07,SSW,193,0.0,0.0,96,0.00,,FEW060,0.00,VWS V14.01,2013-01-30 08:44:00,
2013-01-30 03:49:00,64.8,63.9,30.07,SSW,193,0.0,0.0,97,0.00,,CLR,0.00,VWS V14.01,2013-01-30 08:49:00,
2013-01-30 03:54:00,64.8,63.9,30.06,South,183,0.0,0.0,97,0.00,,CLR,0.00,VWS V14.01,2013-01-30 08:54:00,
2013-01-30 03:59:00,64.7,63.8,30.06,South,184,0.0,0.0,97,0.00,,CLR,0.00,VWS V14.01,2013-01-30 08:59:00,
2013-01-30 04:04:00,64.6,63.7,30.06,South,184,0.0,0.0,97,0.00,,CLR,0.00,VWS V14.01,2013-01-30 09:04:00,
2013-01-30 04:09:00,64.4,63.5,30.06,South,185,0.0,0.0,97,0.00,,CLR,0.00,VWS V14.01,2013-01-30 09:09:00,
2013-01-30 04:14:00,64.3,63.4,30.05,SSE,158,0.0,0.0,97,0.00,,CLR,0.00,VWS V14.01,2013-01-30 09:14:00,
2013-01-30 04:19:00,64.3,63.4,30.05,SW,222,0.0,2.0,97,0.00,,CLR,0.00,VWS V14.01,2013-01-30 09:19:00,
2013-01-30 04:24:00,64.3,63.4,30.05,SSE,148,0.0,2.0,97,0.00,,CLR,0.00,VWS V14.01,2013-01-30 09:24:00,
2013-01-30 04:30:00,64.2,63.3,30.05,SSE,148,0.0,2.0,97,0.00,,CLR,0.00,VWS V14.01,2013-01-30 09:30:00,
2013-01-30 04:35:00,64.2,63.3,30.05,SSE,148,0.0,0.0,97,0.00,,CLR,0.00,VWS V14.01,2013-01-30 09:35:00,
2013-01-30 04:40:00,64.4,63.5,30.05,South,177,0.0,2.0,97,0.00,,CLR,0.00,VWS V14.01,2013-01-30 09:40:00,
2013-01-30 04:45:00,64.5,63.6,30.05,SSE,153,0.0,3.0,97,0.00,,CLR,0.00,VWS V14.01,2013-01-30 09:45:00,
2013-01-30 04:50:00,64.6,63.7,30.05,South,188,0.0,3.0,97,0.00,,CLR,0.00,VWS V14.01,2013-01-30 09:50:00,
2013-01-30 04:55:00,64.6,63.7,30.06,South,172,0.0,3.0,97,0.00,,CLR,0.00,VWS V14.01,2013-01-30 09:55:00,
2013-01-30 05:00:00,64.6,63.7,30.05,SSW,213,1.0,3.0,97,0.00,,CLR,0.00,VWS V14.01,2013-01-30 10:00:00,
2013-01-30 05:06:00,64.6,63.7,30.06,South,187,0.0,2.0,97,0.00,,CLR,0.00,VWS V14.01,2013-01-30 10:06:00,
2013-01-30 05:11:00,64.5,63.6,30.06,SSE,159,0.0,2.0,97,0.00,,CLR,0.00,VWS V14.01,2013-01-30 10:11:00,
2013-01-30 05:16:00,64.4,63.5,30.06,SSW,210,0.0,2.0,97,0.00,,CLR,0.00,VWS V14.01,2013-01-30 10:16:00,
2013-01-30 05:21:00,64.3,63.4,30.06,South,182,0.0,2.0,97,0.00,,CLR,0.00,VWS V14.01,2013-01-30 10:21:00,
2013-01-30 05:26:00,64.3,63.4,30.06,SW,217,1.0,2.0,97,0.00,,CLR,0.00,VWS V14.01,2013-01-30 10:26:00,
2013-01-30 05:31:00,64.2,63.3,30.06,South,172,1.0,2.0,97,0.00,,CLR,0.00,VWS V14.01,2013-01-30 10:31:00,
2013-01-30 05:36:00,64.3,63.4,30.05,SSE,155,0.0,1.0,97,0.00,,CLR,0.00,VWS V14.01,2013-01-30 10:36:00,
2013-01-30 05:42:00,64.3,63.4,30.05,SSE,159,1.0,1.0,97,0.00,,CLR,0.00,VWS V14.01,2013-01-30 10:42:00,
2013-01-30 05:47:00,64.2,63.3,30.05,SSE,164,0.0,2.0,97,0.00,,CLR,0.00,VWS V14.01,2013-01-30 10:47:00,
2013-01-30 05:52:00,64.1,63.2,30.05,South,190,1.0,2.0,97,0.00,,CLR,0.00,VWS V14.01,2013-01-30 10:52:00,
2013-01-30 05:57:00,64.1,63.2,30.06,SSE,159,0.0,2.0,97,0.00,,CLR,0.00,VWS V14.01,2013-01-30 10:57:00,
2013-01-30 06:02:00,64.0,63.1,30.06,SSW,202,0.0,2.0,97,0.00,,CLR,0.00,VWS V14.01,2013-01-30 11:02:00,
2013-01-30 06:07:00,64.0,63.1,30.06,SSW,202,0.0,0.0,97,0.00,,CLR,0.00,VWS V14.01,2013-01-30 11:07:00,
2013-01-30 06:12:00,64.0,63.1,30.06,SE,141,0.0,2.0,97,0.00,,CLR,0.00,VWS V14.01,2013-01-30 11:12:00,
2013-01-30 06:17:00,63.9,63.0,30.06,SSW,204,0.0,3.0,97,0.00,,CLR,0.00,VWS V14.01,2013-01-30 11:17:00,
2013-01-30 06:22:00,64.0,63.1,30.05,SE,145,1.0,3.0,97,0.00,,CLR,0.00,VWS V14.01,2013-01-30 11:22:00,
2013-01-30 06:27:00,64.0,63.1,30.05,SE,136,0.0,3.0,97,0.00,,CLR,0.00,VWS V14.01,2013-01-30 11:27:00,
2013-01-30 06:33:00,64.0,63.1,30.05,SSE,159,0.0,3.0,97,0.00,,CLR,0.00,VWS V14.01,2013-01-30 11:33:00,
2013-01-30 06:38:00,64.0,63.1,30.05,SSE,156,1.0,2.0,97,0.00,,CLR,0.00,VWS V14.01,2013-01-30 11:38:00,
2013-01-30 06:43:00,64.0,63.1,30.05,SE,130,0.0,6.0,97,0.00,,CLR,0.00,VWS V14.01,2013-01-30 11:43:00,
2013-01-30 06:48:00,64.0,63.1,30.05,SSE,166,0.0,6.0,97,0.00,,SCT070,0.00,VWS V14.01,2013-01-30 11:48:00,
2013-01-30 06:53:00,64.0,63.1,30.05,SSE,167,0.0,6.0,97,0.00,,SCT070,0.00,VWS V14.01,2013-01-30 11:53:00,
2013-01-30 06:58:00,64.0,63.1,30.05,ESE,106,1.0,6.0,97,0.00,,SCT070,0.00,VWS V14.01,2013-01-30 11:58:00,
2013-01-30 07:03:00,64.0,63.1,30.05,SE,136,0.0,6.0,97,0.00,,SCT070,0.00,VWS V14.01,2013-01-30 12:03:00,
2013-01-30 07:08:00,64.0,63.1,30.05,South,176,1.0,3.0,97,0.00,,SCT070,0.00,VWS V14.01,2013-01-30 12:08:00,
2013-01-30 07:13:00,64.0,63.1,30.05,SSW,195,2.0,3.0,97,0.00,,SCT070,0.00,VWS V14.01,2013-01-30 12:13:00,
2013-01-30 07:19:00,64.0,63.1,30.04,SSE,155,0.0,4.0,97,0.00,,SCT070,0.00,VWS V14.01,2013-01-30 12:19:00,
2013-01-30 07:24:00,64.1,63.2,30.05,SSE,158,1.0,4.0,97,0.00,,SCT070,0.00,VWS V14.01,2013-01-30 12:24:00,
2013-01-30 07:29:00,64.1,63.2,30.05,SSW,198,1.0,4.0,97,0.00,,SCT070,0.00,VWS V14.01,2013-01-30 12:29:00,
2013-01-30 07:34:00,64.2,63.3,30.04,SSW,192,0.0,5.0,97,0.00,,SCT070,0.00,VWS V14.01,2013-01-30 12:34:00,
2013-01-30 07:39:00,64.3,63.4,30.04,SSW,208,0.0,5.0,97,0.00,,SCT070,0.00,VWS V14.01,2013-01-30 12:39:00,
2013-01-30 07:44:00,64.5,63.6,30.04,SSW,210,3.0,5.0,97,0.00,,SCT070,0.00,VWS V14.01,2013-01-30 12:44:00,
2013-01-30 07:49:00,64.7,63.5,30.04,South,169,2.0,6.0,96,0.00,,CLR,0.00,VWS V14.01,2013-01-30 12:49:00,
2013-01-30 07:54:00,64.9,63.7,30.04,SSE,166,1.0,6.0,96,0.00,,CLR,0.00,VWS V14.01,2013-01-30 12:54:00,
2013-01-30 08:00:00,65.1,63.9,30.05,South,175,1.0,6.0,96,0.00,,CLR,0.00,VWS V14.01,2013-01-30 13:00:00,
2013-01-30 08:05:00,65.3,64.1,30.05,South,173,4.0,4.0,96,0.00,,CLR,0.00,VWS V14.01,2013-01-30 13:05:00,
2013-01-30 08:10:00,65.5,64.0,30.05,SW,215,4.0,6.0,95,0.00,,CLR,0.00,VWS V14.01,2013-01-30 13:10:00,
2013-01-30 08:15:00,65.7,64.2,30.05,South,180,2.0,8.0,95,0.00,,CLR,0.00,VWS V14.01,2013-01-30 13:15:00,
2013-01-30 08:20:00,66.0,64.2,30.05,SSW,200,3.0,8.0,94,0.00,,CLR,0.00,VWS V14.01,2013-01-30 13:20:00,
2013-01-30 08:25:00,66.3,64.5,30.05,SSE,155,3.0,8.0,94,0.00,,CLR,0.00,VWS V14.01,2013-01-30 13:25:00,
2013-01-30 08:30:00,66.6,64.5,30.04,SSW,206,4.0,8.0,93,0.00,,CLR,0.00,VWS V14.01,2013-01-30 13:30:00,
2013-01-30 08:35:00,67.0,64.9,30.04,South,180,4.0,4.0,93,0.00,,CLR,0.00,VWS V14.01,2013-01-30 13:35:00,
2013-01-30 08:41:00,67.3,64.9,30.04,SSE,159,2.0,6.0,92,0.00,,CLR,0.00,VWS V14.01,2013-01-30 13:41:00,
2013-01-30 08:46:00,67.7,65.0,30.03,South,179,3.0,8.0,91,0.00,,CLR,0.00,VWS V14.01,2013-01-30 13:46:00,
2013-01-30 08:51:00,68.1,65.4,30.03,SSE,154,0.0,8.0,91,0.00,,CLR,0.00,VWS V14.01,2013-01-30 13:51:00,
2013-01-30 08:56:00,68.6,65.6,30.03,SSW,208,3.0,8.0,90,0.00,,CLR,0.00,VWS V14.01,2013-01-30 13:56:00,
2013-01-30 09:01:00,69.1,65.7,30.03,South,188,2.0,8.0,89,0.00,,CLR,0.00,VWS V14.01,2013-01-30 14:01:00,
2013-01-30 09:06:00,69.7,66.0,30.03,South,188,4.0,11.0,88,0.00,,CLR,0.00,VWS V14.01,2013-01-30 14:06:00,
2013-01-30 09:11:00,70.3,65.9,30.03,ESE,115,2.0,11.0,86,0.00,,CLR,0.00,VWS V14.01,2013-01-30 14:11:00,
2013-01-30 09:16:00,71.0,66.6,30.03,SSW,201,3.0,11.0,86,0.00,,CLR,0.00,VWS V14.01,2013-01-30 14:16:00,
2013-01-30 09:22:00,71.7,66.3,30.02,South,172,8.0,11.0,83,0.00,,CLR,0.00,VWS V14.01,2013-01-30 14:22:00,
2013-01-30 09:27:00,72.2,66.8,30.03,South,173,3.0,11.0,83,0.00,,CLR,0.00,VWS V14.01,2013-01-30 14:27:00,
2013-01-30 09:32:00,72.8,66.6,30.03,ENE,68,6.0,14.0,81,0.00,,CLR,0.00,VWS V14.01,2013-01-30 14:32:00,
2013-01-30 09:37:00,73.1,66.6,30.03,ESE,122,2.0,11.0,80,0.00,,CLR,0.00,VWS V14.01,2013-01-30 14:37:00,
2013-01-30 09:42:00,73.3,66.4,30.03,SSW,200,2.0,13.0,79,0.00,,CLR,0.00,VWS V14.01,2013-01-30 14:42:00,
2013-01-30 09:48:00,73.9,67.3,30.03,South,190,2.0,13.0,80,0.00,,CLR,0.00,VWS V14.01,2013-01-30 14:48:00,
2013-01-30 09:53:00,74.6,67.3,30.02,SSE,152,2.0,13.0,78,0.00,,CLR,0.00,VWS V14.01,2013-01-30 14:53:00,
2013-01-30 09:58:00,75.1,67.0,30.02,SSE,160,5.0,13.0,76,0.00,,CLR,0.00,VWS V14.01,2013-01-30 14:58:00,
2013-01-30 10:03:00,75.3,66.8,30.01,South,171,4.0,13.0,75,0.00,,CLR,0.00,VWS V14.01,2013-01-30 15:03:00,
2013-01-30 10:08:00,75.7,67.2,30.01,ESE,113,2.0,10.0,75,0.00,,CLR,0.00,VWS V14.01,2013-01-30 15:08:00,
2013-01-30 10:13:00,75.9,66.6,30.02,South,190,3.0,13.0,73,0.00,,CLR,0.00,VWS V14.01,2013-01-30 15:13:00,
2013-01-30 10:18:00,75.9,66.6,30.02,SSE,148,4.0,13.0,73,0.00,,CLR,0.00,VWS V14.01,2013-01-30 15:18:00,
2013-01-30 10:23:00,75.9,66.2,30.02,SW,214,7.0,14.0,72,0.00,,CLR,0.00,VWS V14.01,2013-01-30 15:23:00,
2013-01-30 10:28:00,76.1,66.4,30.01,WSW,250,4.0,14.0,72,0.00,,CLR,0.00,VWS V14.01,2013-01-30 15:28:00,
2013-01-30 10:34:00,76.4,66.3,30.01,SSE,159,3.0,14.0,71,0.00,,CLR,0.00,VWS V14.01,2013-01-30 15:34:00,
2013-01-30 10:39:00,76.8,66.7,30.00,ESE,120,2.0,11.0,71,0.00,,CLR,0.00,VWS V14.01,2013-01-30 15:39:00,
2013-01-30 10:44:00,77.3,67.2,30.00,WNW,283,4.0,11.0,71,0.00,,CLR,0.00,VWS V14.01,2013-01-30 15:44:00,
2013-01-30 10:49:00,77.4,66.4,30.00,ESE,115,8.0,11.0,69,0.00,,CLR,0.00,VWS V14.01,2013-01-30 15:49:00,
2013-01-30 10:54:00,77.7,66.7,29.99,SSW,193,3.0,11.0,69,0.00,,CLR,0.00,VWS V14.01,2013-01-30 15:54:00,
2013-01-30 10:59:00,78.1,66.7,30.00,SSE,162,7.0,11.0,68,0.00,,CLR,0.00,VWS V14.01,2013-01-30 15:59:00,
2013-01-30 11:04:00,78.2,66.8,29.99,SSE,160,4.0,8.0,68,0.00,,CLR,0.00,VWS V14.01,2013-01-30 16:04:00,
2013-01-30 11:10:00,78.4,66.6,29.99,East,82,7.0,10.0,67,0.00,,CLR,0.00,VWS V14.01,2013-01-30 16:10:00,
2013-01-30 11:15:00,78.6,66.3,29.99,ENE,74,2.0,11.0,66,0.00,,CLR,0.00,VWS V14.01,2013-01-30 16:15:00,
2013-01-30 11:20:00,79.0,66.2,29.99,SW,224,6.0,11.0,65,0.00,,CLR,0.00,VWS V14.01,2013-01-30 16:20:00,
2013-01-30 11:25:00,79.2,66.0,29.99,SE,142,1.0,16.0,64,0.00,,CLR,0.00,VWS V14.01,2013-01-30 16:25:00,
2013-01-30 11:30:00,79.5,66.3,29.99,East,79,2.0,16.0,64,0.00,,CLR,0.00,VWS V14.01,2013-01-30 16:30:00,
2013-01-30 11:35:00,79.8,66.1,29.99,SE,131,4.0,10.0,63,0.00,,CLR,0.00,VWS V14.01,2013-01-30 16:35:00,
2013-01-30 11:40:00,80.0,66.7,29.99,WSW,245,3.0,10.0,64,0.00,,CLR,0.00,VWS V14.01,2013-01-30 16:40:00,
2013-01-30 11:45:00,80.4,66.7,29.98,WSW,250,2.0,10.0,63,0.00,,FEW028,0.00,VWS V14.01,2013-01-30 16:45:00,
2013-01-30 11:51:00,80.6,66.4,29.98,WSW,238,3.0,12.0,62,0.00,,FEW028,0.00,VWS V14.01,2013-01-30 16:51:00,
2013-01-30 11:56:00,80.2,66.0,29.98,SE,144,3.0,14.0,62,0.00,,FEW028,0.00,VWS V14.01,2013-01-30 16:56:00,
2013-01-30 12:01:00,80.3,65.6,29.97,ESE,109,6.0,14.0,61,0.00,,FEW028,0.00,VWS V14.01,2013-01-30 17:01:00,
2013-01-30 12:06:00,80.5,65.8,29.97,NE,49,2.0,6.0,61,0.00,,FEW028,0.00,VWS V14.01,2013-01-30 17:06:00,
2013-01-30 12:11:00,80.6,66.8,29.97,East,79,1.0,13.0,63,0.00,,FEW028,0.00,VWS V14.01,2013-01-30 17:11:00,
2013-01-30 12:16:00,80.5,66.3,29.96,SW,217,2.0,13.0,62,0.00,,FEW028,0.00,VWS V14.01,2013-01-30 17:16:00,
2013-01-30 12:22:00,81.1,66.9,29.96,SSW,196,5.0,13.0,62,0.00,,FEW028,0.00,VWS V14.01,2013-01-30 17:22:00,
2013-01-30 12:27:00,81.2,66.5,29.96,East,94,5.0,14.0,61,0.00,,FEW028,0.00,VWS V14.01,2013-01-30 17:27:00,
2013-01-30 12:32:00,81.2,66.0,29.96,NE,39,3.0,14.0,60,0.00,,FEW028,0.00,VWS V14.01,2013-01-30 17:32:00,
2013-01-30 12:37:00,80.8,66.1,29.95,SE,139,2.0,7.0,61,0.00,,FEW028,0.00,VWS V14.01,2013-01-30 17:37:00,
2013-01-30 12:42:00,81.3,66.6,29.96,NW,304,2.0,7.0,61,0.00,,FEW028,0.00,VWS V14.01,2013-01-30 17:42:00,
2013-01-30 12:48:00,81.4,67.1,29.96,ESE,115,2.0,9.0,62,0.00,,CLR,0.00,VWS V14.01,2013-01-30 17:48:00,
2013-01-30 12:53:00,82.6,67.3,29.95,SW,217,5.0,9.0,60,0.00,,CLR,0.00,VWS V14.01,2013-01-30 17:53:00,
2013-01-30 12:58:00,83.2,66.4,29.95,East,97,4.0,9.0,57,0.00,,CLR,0.00,VWS V14.01,2013-01-30 17:58:00,
2013-01-30 13:03:00,83.2,64.8,29.95,ENE,61,1.0,9.0,54,0.00,,CLR,0.00,VWS V14.01,2013-01-30 18:03:00,
2013-01-30 13:08:00,83.1,64.8,29.96,ESE,122,3.0,8.0,54,0.00,,CLR,0.00,VWS V14.01,2013-01-30 18:08:00,
2013-01-30 13:13:00,83.5,65.7,29.96,SE,141,3.0,8.0,55,0.00,,CLR,0.00,VWS V14.01,2013-01-30 18:13:00,
2013-01-30 13:19:00,83.2,65.9,29.95,South,188,3.0,8.0,56,0.00,,CLR,0.00,VWS V14.01,2013-01-30 18:19:00,
2013-01-30 13:24:00,83.1,65.8,29.95,WSW,245,1.0,11.0,56,0.00,,CLR,0.00,VWS V14.01,2013-01-30 18:24:00,
2013-01-30 13:29:00,83.0,65.2,29.94,SSE,163,9.0,11.0,55,0.00,,CLR,0.00,VWS V14.01,2013-01-30 18:29:00,
2013-01-30 13:34:00,82.9,66.1,29.93,SE,124,4.0,11.0,57,0.00,,CLR,0.00,VWS V14.01,2013-01-30 18:34:00,
2013-01-30 13:39:00,82.9,65.6,29.93,SE,142,5.0,9.0,56,0.00,,CLR,0.00,VWS V14.01,2013-01-30 18:39:00,
2013-01-30 13:44:00,83.4,66.1,29.93,ESE,110,3.0,9.0,56,0.00,,CLR,0.00,VWS V14.01,2013-01-30 18:44:00,
2013-01-30 13:49:00,83.2,65.9,29.93,WNW,297,2.0,10.0,56,0.00,,FEW037,0.00,VWS V14.01,2013-01-30 18:49:00,
2013-01-30 13:54:00,83.3,66.0,29.93,SSE,162,4.0,14.0,56,0.00,,FEW037,0.00,VWS V14.01,2013-01-30 18:54:00,
2013-01-30 13:59:00,83.3,66.5,29.93,SSE,151,3.0,14.0,57,0.00,,FEW037,0.00,VWS V14.01,2013-01-30 18:59:00,
2013-01-30 14:05:00,83.5,66.2,29.93,SSW,203,2.0,6.0,56,0.00,,FEW037,0.00,VWS V14.01,2013-01-30 19:05:00,
2013-01-30 14:10:00,83.2,65.9,29.93,SSE,162,2.0,11.0,56,0.00,,FEW037,0.00,VWS V14.01,2013-01-30 19:10:00,
2013-01-30 14:15:00,83.6,66.8,29.93,ESE,110,2.0,11.0,57,0.00,,FEW037,0.00,VWS V14.01,2013-01-30 19:15:00,
2013-01-30 14:20:00,83.8,64.9,29.93,ENE,75,2.0,12.0,53,0.00,,FEW037,0.00,VWS V14.01,2013-01-30 19:20:00,
2013-01-30 14:25:00,83.5,65.1,29.93,North,359,3.0,12.0,54,0.00,,FEW037,0.00,VWS V14.01,2013-01-30 19:25:00,
2013-01-30 14:30:00,83.4,65.0,29.92,ESE,113,2.0,12.0,54,0.00,,FEW037,0.00,VWS V14.01,2013-01-30 19:30:00,
2013-01-30 14:35:00,83.3,64.9,29.92,SSE,152,4.0,6.0,54,0.00,,FEW041,0.00,VWS V14.01,2013-01-30 19:35:00,
2013-01-30 14:40:00,83.4,66.1,29.92,ESE,117,9.0,9.0,56,0.00,,FEW041,0.00,VWS V14.01,2013-01-30 19:40:00,
2013-01-30 14:45:00,83.5,66.2,29.92,SSW,210,1.0,9.0,56,0.00,,FEW041,0.00,VWS V14.01,2013-01-30 19:45:00,
2013-01-30 14:50:00,83.8,67.0,29.92,SE,129,2.0,9.0,57,0.00,,FEW041,0.00,VWS V14.01,2013-01-30 19:50:00,
2013-01-30 14:55:00,83.8,66.4,29.92,East,85,4.0,9.0,56,0.00,,FEW041,0.00,VWS V14.01,2013-01-30 19:55:00,
2013-01-30 15:01:00,83.7,66.9,29.92,SSE,158,2.0,9.0,57,0.00,,FEW041,0.00,VWS V14.01,2013-01-30 20:01:00,
2013-01-30 15:06:00,83.8,66.4,29.91,ENE,61,2.0,9.0,56,0.00,,FEW041,0.00,VWS V14.01,2013-01-30 20:06:00,
2013-01-30 15:11:00,84.2,66.3,29.91,SSE,166,2.0,9.0,55,0.00,,FEW041,0.00,VWS V14.01,2013-01-30 20:11:00,
2013-01-30 15:16:00,83.8,66.4,29.91,South,174,7.0,11.0,56,0.00,,FEW041,0.00,VWS V14.01,2013-01-30 20:16:00,
2013-01-30 15:21:00,83.6,65.7,29.91,SSW,200,4.0,11.0,55,0.00,,FEW041,0.00,VWS V14.01,2013-01-30 20:21:00,
2013-01-30 15:26:00,83.4,66.1,29.90,SW,234,1.0,11.0,56,0.00,,FEW041,0.00,VWS V14.01,2013-01-30 20:26:00,
2013-01-30 15:31:00,83.2,66.4,29.90,SE,132,2.0,11.0,57,0.00,,FEW041,0.00,VWS V14.01,2013-01-30 20:31:00,
2013-01-30 15:36:00,83.5,66.2,29.90,SSE,160,7.0,8.0,56,0.00,,FEW041,0.00,VWS V14.01,2013-01-30 20:36:00,
2013-01-30 15:41:00,83.1,66.3,29.90,West,278,2.0,10.0,57,0.00,,FEW041,0.00,VWS V14.01,2013-01-30 20:41:00,
2013-01-30 15:47:00,83.0,66.2,29.90,ESE,105,2.0,10.0,57,0.00,,CLR,0.00,VWS V14.01,2013-01-30 20:47:00,
2013-01-30 15:52:00,82.9,66.1,29.91,East,91,4.0,10.0,57,0.00,,CLR,0.00,VWS V14.01,2013-01-30 20:52:00,
2013-01-30 15:57:00,82.7,66.4,29.91,WSW,255,5.0,11.0,58,0.00,,CLR,0.00,VWS V14.01,2013-01-30 20:57:00,
2013-01-30 16:02:00,82.5,66.2,29.90,SSE,148,2.0,11.0,58,0.00,,CLR,0.00,VWS V14.01,2013-01-30 21:02:00,
2013-01-30 16:07:00,82.3,66.1,29.90,South,174,2.0,10.0,58,0.00,,CLR,0.00,VWS V14.01,2013-01-30 21:07:00,
2013-01-30 16:12:00,81.9,66.2,29.90,SW,224,5.0,10.0,59,0.00,,CLR,0.00,VWS V14.01,2013-01-30 21:12:00,
2013-01-30 16:17:00,81.7,65.5,29.89,East,101,7.0,10.0,58,0.00,,CLR,0.00,VWS V14.01,2013-01-30 21:17:00,
2013-01-30 16:22:00,81.7,66.0,29.89,SSE,148,2.0,10.0,59,0.00,,CLR,0.00,VWS V14.01,2013-01-30 21:22:00,
2013-01-30 16:27:00,81.6,65.9,29.89,East,96,3.0,10.0,59,0.00,,CLR,0.00,VWS V14.01,2013-01-30 21:27:00,
2013-01-30 16:33:00,81.5,65.8,29.90,NE,44,4.0,11.0,59,0.00,,CLR,0.00,VWS V14.01,2013-01-30 21:33:00,
2013-01-30 16:38:00,81.4,66.2,29.90,ENE,78,3.0,7.0,60,0.00,,CLR,0.00,VWS V14.01,2013-01-30 21:38:00,
2013-01-30 16:43:00,81.3,65.6,29.90,South,186,4.0,7.0,59,0.00,,CLR,0.00,VWS V14.01,2013-01-30 21:43:00,
2013-01-30 16:48:00,81.2,66.0,29.90,SE,145,1.0,8.0,60,0.00,,FEW048,0.00,VWS V14.01,2013-01-30 21:48:00,
2013-01-30 16:53:00,81.2,66.0,29.90,East,81,2.0,8.0,60,0.00,,FEW048,0.00,VWS V14.01,2013-01-30 21:53:00,
2013-01-30 16:58:00,81.1,65.9,29.89,South,189,3.0,8.0,60,0.00,,FEW048,0.00,VWS V14.01,2013-01-30 21:58:00,
2013-01-30 17:03:00,81.0,65.8,29.89,SE,143,2.0,11.0,60,0.00,,FEW048,0.00,VWS V14.01,2013-01-30 22:03:00,
2013-01-30 17:08:00,80.8,66.1,29.88,ESE,109,6.0,6.0,61,0.00,,FEW048,0.00,VWS V14.01,2013-01-30 22:08:00,
2013-01-30 17:13:00,80.6,65.9,29.88,ESE,108,5.0,8.0,61,0.00,,FEW048,0.00,VWS V14.01,2013-01-30 22:13:00,
2013-01-30 17:19:00,80.4,65.7,29.88,South,188,1.0,8.0,61,0.00,,FEW048,0.00,VWS V14.01,2013-01-30 22:19:00,
2013-01-30 17:24:00,80.3,65.6,29.88,South,174,2.0,8.0,61,0.00,,FEW048,0.00,VWS V14.01,2013-01-30 22:24:00,
2013-01-30 17:29:00,80.1,65.9,29.88,South,169,1.0,8.0,62,0.00,,FEW048,0.00,VWS V14.01,2013-01-30 22:29:00,
2013-01-30 17:34:00,79.9,65.7,29.89,SE,146,1.0,8.0,62,0.00,,FEW048,0.00,VWS V14.01,2013-01-30 22:34:00,
2013-01-30 17:39:00,79.6,65.9,29.89,SE,139,0.0,4.0,63,0.00,,FEW048,0.00,VWS V14.01,2013-01-30 22:39:00,
2013-01-30 17:44:00,79.4,65.7,29.89,SE,128,2.0,5.0,63,0.00,,FEW048,0.00,VWS V14.01,2013-01-30 22:44:00,
2013-01-30 17:49:00,79.2,66.0,29.89,SSE,148,2.0,5.0,64,0.00,,FEW055,0.00,VWS V14.01,2013-01-30 22:49:00,
2013-01-30 17:54:00,78.9,65.7,29.89,South,188,1.0,6.0,64,0.00,,FEW055,0.00,VWS V14.01,2013-01-30 22:54:00,
2013-01-30 17:59:00,78.6,65.9,29.89,SE,142,1.0,6.0,65,0.00,,FEW055,0.00,VWS V14.01,2013-01-30 22:59:00,
2013-01-30 18:04:00,78.3,65.6,29.89,SSE,167,2.0,3.0,65,0.00,,FEW055,0.00,VWS V14.01,2013-01-30 23:04:00,
2013-01-30 18:09:00,78.0,65.7,29.88,SSE,159,1.0,4.0,66,0.00,,FEW055,0.00,VWS V14.01,2013-01-30 23:09:00,
2013-01-30 18:15:00,77.7,65.4,29.88,SE,145,0.0,5.0,66,0.00,,FEW055,0.00,VWS V14.01,2013-01-30 23:15:00,
2013-01-30 18:20:00,77.4,65.6,29.88,SSE,153,1.0,5.0,67,0.00,,FEW055,0.00,VWS V14.01,2013-01-30 23:20:00,
2013-01-30 18:25:00,77.1,65.7,29.87,SSW,194,4.0,5.0,68,0.00,,FEW055,0.00,VWS V14.01,2013-01-30 23:25:00,
2013-01-30 18:30:00,76.9,65.5,29.87,ESE,110,0.0,5.0,68,0.00,,FEW055,0.00,VWS V14.01,2013-01-30 23:30:00,
2013-01-30 18:35:00,76.7,65.3,29.87,SSE,156,0.0,2.0,68,0.00,,CLR,0.00,VWS V14.01,2013-01-30 23:35:00,
2013-01-30 18:40:00,76.4,65.5,29.88,ESE,123,2.0,3.0,69,0.00,,CLR,0.00,VWS V14.01,2013-01-30 23:40:00,
2013-01-30 18:45:00,76.3,65.4,29.88,SE,129,0.0,3.0,69,0.00,,CLR,0.00,VWS V14.01,2013-01-30 23:45:00,
2013-01-30 18:50:00,76.0,65.5,29.88,SSW,200,0.0,3.0,70,0.00,,CLR,0.00,VWS V14.01,2013-01-30 23:50:00,
2013-01-30 18:55:00,75.8,65.3,29.88,SW,218,0.0,3.0,70,0.00,,CLR,0.00,VWS V14.01,2013-01-30 23:55:00,
2013-01-30 19:00:00,75.5,65.4,29.88,SSE,162,3.0,3.0,71,0.00,,CLR,0.00,VWS V14.01,2013-01-31 00:00:00,
2013-01-30 19:06:00,75.3,65.3,29.89,SSE,167,0.0,2.0,71,0.00,,CLR,0.00,VWS V14.01,2013-01-31 00:06:00,
2013-01-30 19:11:00,75.1,65.5,29.88,SSE,151,0.0,3.0,72,0.00,,CLR,0.00,VWS V14.01,2013-01-31 00:11:00,
2013-01-30 19:16:00,74.9,65.3,29.88,ESE,122,0.0,3.0,72,0.00,,CLR,0.00,VWS V14.01,2013-01-31 00:16:00,
2013-01-30 19:21:00,74.9,65.7,29.88,SSE,148,2.0,7.0,73,0.00,,CLR,0.00,VWS V14.01,2013-01-31 00:21:00,
2013-01-30 19:26:00,75.0,65.8,29.89,South,183,1.0,9.0,73,0.00,,CLR,0.00,VWS V14.01,2013-01-31 00:26:00,
2013-01-30 19:31:00,75.1,65.9,29.89,ESE,105,1.0,9.0,73,0.00,,CLR,0.00,VWS V14.01,2013-01-31 00:31:00,
2013-01-30 19:36:00,75.0,65.4,29.90,NNE,27,2.0,4.0,72,0.00,,CLR,0.00,VWS V14.01,2013-01-31 00:36:00,
2013-01-30 19:41:00,75.0,65.4,29.90,NNE,27,1.0,4.0,72,0.00,,CLR,0.00,VWS V14.01,2013-01-31 00:41:00,
2013-01-30 19:46:00,74.9,65.3,29.90,NNE,18,0.0,5.0,72,0.00,,CLR,0.00,VWS V14.01,2013-01-31 00:46:00,
2013-01-30 19:51:00,74.8,65.2,29.90,North,11,1.0,6.0,72,0.00,,CLR,0.00,VWS V14.01,2013-01-31 00:51:00,
2013-01-30 19:56:00,74.7,65.1,29.90,SSW,193,0.0,6.0,72,0.00,,CLR,0.00,VWS V14.01,2013-01-31 00:56:00,
2013-01-30 20:02:00,74.4,64.8,29.90,NNW,348,1.0,6.0,72,0.00,,CLR,0.00,VWS V14.01,2013-01-31 01:02:00,
2013-01-30 20:07:00,74.2,64.6,29.89,SSW,208,2.0,6.0,72,0.00,,CLR,0.00,VWS V14.01,2013-01-31 01:07:00,
2013-01-30 20:12:00,74.0,64.4,29.89,East,95,3.0,6.0,72,0.00,,CLR,0.00,VWS V14.01,2013-01-31 01:12:00,
2013-01-30 20:17:00,73.9,64.3,29.89,North,360,1.0,7.0,72,0.00,,CLR,0.00,VWS V14.01,2013-01-31 01:17:00,
2013-01-30 20:22:00,73.7,64.5,29.90,South,181,1.0,7.0,73,0.00,,CLR,0.00,VWS V14.01,2013-01-31 01:22:00,
2013-01-30 20:27:00,73.6,64.4,29.90,SW,232,0.0,7.0,73,0.00,,CLR,0.00,VWS V14.01,2013-01-31 01:27:00,
2013-01-30 20:32:00,73.4,64.6,29.90,SSW,210,2.0,7.0,74,0.00,,CLR,0.00,VWS V14.01,2013-01-31 01:32:00,
2013-01-30 20:37:00,73.1,64.3,29.89,SSW,205,2.0,5.0,74,0.00,,CLR,0.00,VWS V14.01,2013-01-31 01:37:00,
2013-01-30 20:42:00,72.9,64.5,29.89,NE,45,2.0,6.0,75,0.00,,CLR,0.00,VWS V14.01,2013-01-31 01:42:00,
2013-01-30 20:48:00,72.8,64.4,29.89,South,172,2.0,6.0,75,0.00,,CLR,0.00,VWS V14.01,2013-01-31 01:48:00,
2013-01-30 20:53:00,72.6,64.6,29.89,South,172,0.0,6.0,76,0.00,,CLR,0.00,VWS V14.01,2013-01-31 01:53:00,
2013-01-30 20:58:00,72.4,64.4,29.89,SE,127,2.0,6.0,76,0.00,,CLR,0.00,VWS V14.01,2013-01-31 01:58:00,
2013-01-30 21:03:00,72.2,64.6,29.89,SE,125,0.0,6.0,77,0.00,,CLR,0.00,VWS V14.01,2013-01-31 02:03:00,
2013-01-30 21:08:00,72.1,64.5,29.90,SE,132,0.0,4.0,77,0.00,,CLR,0.00,VWS V14.01,2013-01-31 02:08:00,
2013-01-30 21:13:00,72.0,64.8,29.90,NNW,338,2.0,6.0,78,0.00,,CLR,0.00,VWS V14.01,2013-01-31 02:13:00,
2013-01-30 21:18:00,71.9,64.7,29.90,East,81,1.0,6.0,78,0.00,,CLR,0.00,VWS V14.01,2013-01-31 02:18:00,
2013-01-30 21:23:00,71.7,64.5,29.90,SE,142,2.0,6.0,78,0.00,,CLR,0.00,VWS V14.01,2013-01-31 02:23:00,
2013-01-30 21:28:00,71.7,64.5,29.90,WNW,284,1.0,6.0,78,0.00,,CLR,0.00,VWS V14.01,2013-01-31 02:28:00,
2013-01-30 21:34:00,71.6,64.4,29.90,WNW,294,1.0,6.0,78,0.00,,CLR,0.00,VWS V14.01,2013-01-31 02:34:00,
2013-01-30 21:39:00,71.6,64.8,29.90,NE,51,1.0,3.0,79,0.00,,CLR,0.00,VWS V14.01,2013-01-31 02:39:00,
2013-01-30 21:44:00,71.4,64.6,29.90,NW,321,1.0,3.0,79,0.00,,CLR,0.00,VWS V14.01,2013-01-31 02:44:00,
2013-01-30 21:49:00,71.4,64.6,29.90,WSW,250,1.0,7.0,79,0.00,,CLR,0.00,VWS V14.01,2013-01-31 02:49:00,
2013-01-30 21:54:00,71.4,64.9,29.90,ESE,109,3.0,7.0,80,0.00,,CLR,0.00,VWS V14.01,2013-01-31 02:54:00,
2013-01-30 21:59:00,71.4,64.9,29.91,SE,125,0.0,7.0,80,0.00,,CLR,0.00,VWS V14.01,2013-01-31 02:59:00,
2013-01-30 22:04:00,71.2,64.7,29.90,East,79,1.0,2.0,80,0.00,,CLR,0.00,VWS V14.01,2013-01-31 03:04:00,
2013-01-30 22:09:00,71.1,65.0,29.91,SE,145,0.0,2.0,81,0.00,,CLR,0.00,VWS V14.01,2013-01-31 03:09:00,
2013-01-30 22:15:00,71.0,64.9,29.90,SE,132,3.0,5.0,81,0.00,,CLR,0.00,VWS V14.01,2013-01-31 03:15:00,
2013-01-30 22:20:00,71.0,64.9,29.90,ENE,60,1.0,5.0,81,0.00,,CLR,0.00,VWS V14.01,2013-01-31 03:20:00,
2013-01-30 22:25:00,70.9,65.1,29.91,ESE,113,1.0,5.0,82,0.00,,CLR,0.00,VWS V14.01,2013-01-31 03:25:00,
2013-01-30 22:30:00,70.9,65.1,29.91,SE,131,1.0,7.0,82,0.00,,CLR,0.00,VWS V14.01,2013-01-31 03:30:00,
2013-01-30 22:35:00,70.9,65.1,29.90,NNE,27,1.0,4.0,82,0.00,,CLR,0.00,VWS V14.01,2013-01-31 03:35:00,
2013-01-30 22:40:00,70.7,65.3,29.90,East,91,1.0,7.0,83,0.00,,CLR,0.00,VWS V14.01,2013-01-31 03:40:00,
2013-01-30 22:45:00,70.7,65.3,29.90,NE,35,0.0,7.0,83,0.00,,CLR,0.00,VWS V14.01,2013-01-31 03:45:00,
2013-01-30 22:50:00,70.7,65.3,29.89,SE,146,4.0,7.0,83,0.00,,CLR,0.00,VWS V14.01,2013-01-31 03:50:00,
2013-01-30 22:55:00,70.6,65.2,29.89,SSE,159,0.0,8.0,83,0.00,,CLR,0.00,VWS V14.01,2013-01-31 03:55:00,
2013-01-30 23:00:00,70.5,65.1,29.89,SE,142,2.0,8.0,83,0.00,,CLR,0.00,VWS V14.01,2013-01-31 04:00:00,
2013-01-30 23:05:00,70.4,65.3,29.89,East,86,3.0,6.0,84,0.00,,CLR,0.00,VWS V14.01,2013-01-31 04:05:00,
2013-01-30 23:11:00,70.3,65.2,29.89,South,190,4.0,8.0,84,0.00,,CLR,0.00,VWS V14.01,2013-01-31 04:11:00,
2013-01-30 23:16:00,70.2,65.1,29.89,SSW,203,5.0,8.0,84,0.00,,CLR,0.00,VWS V14.01,2013-01-31 04:16:00,
2013-01-30 23:21:00,70.1,65.1,29.90,SE,129,1.0,8.0,84,0.00,,CLR,0.00,VWS V14.01,2013-01-31 04:21:00,
2013-01-30 23:26:00,70.1,65.4,29.90,SSE,158,1.0,8.0,85,0.00,,CLR,0.00,VWS V14.01,2013-01-31 04:26:00,
2013-01-30 23:31:00,70.0,65.3,29.89,South,179,1.0,8.0,85,0.00,,CLR,0.00,VWS V14.01,2013-01-31 04:31:00,
2013-01-30 23:36:00,69.9,65.2,29.89,ENE,64,1.0,5.0,85,0.00,,CLR,0.00,VWS V14.01,2013-01-31 04:36:00,
2013-01-30 23:41:00,69.9,65.2,29.89,ENE,71,2.0,8.0,85,0.00,,CLR,0.00,VWS V14.01,2013-01-31 04:41:00,
2013-01-30 23:46:00,69.9,65.5,29.90,WNW,291,2.0,8.0,86,0.00,,CLR,0.00,VWS V14.01,2013-01-31 04:46:00,
2013-01-30 23:51:00,69.9,65.5,29.90,SE,126,1.0,8.0,86,0.00,,CLR,0.00,VWS V14.01,2013-01-31 04:51:00,
2013-01-30 23:57:00,69.9,65.5,29.90,NNW,332,3.0,8.0,86,0.00,,CLR,0.00,VWS V14.01,2013-01-31 04:57:00,